Location: Bercimuel
(41.3983°N, 3.5711°W)
Time: 08:19:50
(UTC+00:00)

Nadezhda 4 Rocket - Pass Details

Date: 15 May 2026
Orbit: 948 x 992 km, 82.9° (Epoch: 5 June)

Event Time Altitude Azimuth Distance (km) Brightness Sun altitude
Rises 22:09:34 0° 351° (N) 3,629 8.1 -23.4°
Reaches altitude 10° 22:12:04 10° 350° (N) 2,681 7.2 -23.6°
Maximum altitude 22:18:11 78° 265° (W) 978 3.9 -24.2°
Enters shadow 22:20:01 48° 190° (S) 1,235 4.2 -24.3°
